Year,Month,Day,Hour,Minute,Value (Times are PST for temperature in C)
2014,10,15,00,00,9.90
2014,10,15,00,01,9.90
2014,10,15,00,02,9.90
2014,10,15,00,03,9.90
2014,10,15,00,04,9.90
2014,10,15,00,05,9.90
2014,10,15,00,06,9.80
2014,10,15,00,07,9.80
2014,10,15,00,08,9.80
2014,10,15,00,09,9.80
2014,10,15,00,10,9.80
2014,10,15,00,11,9.80
2014,10,15,00,12,9.70
2014,10,15,00,13,9.60
2014,10,15,00,14,9.60
2014,10,15,00,15,9.60
2014,10,15,00,16,9.60
2014,10,15,00,17,9.60
2014,10,15,00,18,9.60
2014,10,15,00,19,9.60
2014,10,15,00,20,9.60
2014,10,15,00,21,9.60
2014,10,15,00,22,9.60
2014,10,15,00,23,9.70
2014,10,15,00,24,9.70
2014,10,15,00,25,9.70
2014,10,15,00,26,9.70
2014,10,15,00,27,9.70
2014,10,15,00,28,9.70
2014,10,15,00,29,9.70
2014,10,15,00,30,9.70
2014,10,15,00,31,9.80
2014,10,15,00,32,9.80
2014,10,15,00,33,9.80
2014,10,15,00,34,9.80
2014,10,15,00,35,9.80
2014,10,15,00,36,9.80
2014,10,15,00,37,9.80
2014,10,15,00,38,9.80
2014,10,15,00,39,9.80
2014,10,15,00,40,9.80
2014,10,15,00,41,9.80
2014,10,15,00,42,9.80
2014,10,15,00,43,9.80
2014,10,15,00,44,9.80
2014,10,15,00,45,9.80
2014,10,15,00,46,9.80
2014,10,15,00,47,9.70
2014,10,15,00,48,9.70
2014,10,15,00,49,9.70
2014,10,15,00,50,9.70
2014,10,15,00,51,9.70
2014,10,15,00,52,9.70
2014,10,15,00,53,9.70
2014,10,15,00,54,9.70
2014,10,15,00,55,9.70
2014,10,15,00,56,9.70
2014,10,15,00,57,9.70
2014,10,15,00,58,9.70
2014,10,15,00,59,9.70
2014,10,15,01,00,9.70
2014,10,15,01,01,9.70
2014,10,15,01,02,9.70
2014,10,15,01,03,9.70
2014,10,15,01,04,9.70
2014,10,15,01,05,9.70
2014,10,15,01,06,9.70
2014,10,15,01,07,9.70
2014,10,15,01,08,9.60
2014,10,15,01,09,9.60
2014,10,15,01,10,9.60
2014,10,15,01,11,9.60
2014,10,15,01,12,9.60
2014,10,15,01,13,9.60
2014,10,15,01,14,9.60
2014,10,15,01,15,9.70
2014,10,15,01,16,9.70
2014,10,15,01,17,9.70
2014,10,15,01,18,9.70
2014,10,15,01,19,9.70
2014,10,15,01,20,9.70
2014,10,15,01,21,9.70
2014,10,15,01,22,9.70
2014,10,15,01,23,9.70
2014,10,15,01,24,9.70
2014,10,15,01,25,9.80
2014,10,15,01,26,9.80
2014,10,15,01,27,9.80
2014,10,15,01,28,9.80
2014,10,15,01,29,9.80
2014,10,15,01,30,9.80
2014,10,15,01,31,9.80
2014,10,15,01,32,9.80
2014,10,15,01,33,9.80
2014,10,15,01,34,9.80
2014,10,15,01,35,9.80
2014,10,15,01,36,9.80
2014,10,15,01,37,9.80
2014,10,15,01,38,9.80
2014,10,15,01,39,9.80
2014,10,15,01,40,9.80
2014,10,15,01,41,9.80
2014,10,15,01,42,9.80
2014,10,15,01,43,9.80
2014,10,15,01,44,9.90
2014,10,15,01,45,9.90
2014,10,15,01,46,9.90
2014,10,15,01,47,9.90
2014,10,15,01,48,9.90
2014,10,15,01,49,9.90
2014,10,15,01,50,9.90
2014,10,15,01,51,9.90
2014,10,15,01,52,10.00
2014,10,15,01,53,10.00
2014,10,15,01,54,10.00
2014,10,15,01,55,10.10
2014,10,15,01,56,10.10
2014,10,15,01,57,10.10
2014,10,15,01,58,10.10
2014,10,15,01,59,10.10
2014,10,15,02,00,10.20
2014,10,15,02,01,10.20
2014,10,15,02,02,10.20
2014,10,15,02,03,10.30
2014,10,15,02,04,10.30
2014,10,15,02,05,10.30
2014,10,15,02,06,10.30
2014,10,15,02,07,10.30
2014,10,15,02,08,10.40
2014,10,15,02,09,10.40
2014,10,15,02,10,10.40
2014,10,15,02,11,10.40
2014,10,15,02,12,10.50
2014,10,15,02,13,10.60
2014,10,15,02,14,10.70
2014,10,15,02,15,10.80
2014,10,15,02,16,10.80
2014,10,15,02,17,10.80
2014,10,15,02,18,10.80
2014,10,15,02,19,10.80
2014,10,15,02,20,10.80
2014,10,15,02,21,10.70
2014,10,15,02,22,10.70
2014,10,15,02,23,10.60
2014,10,15,02,24,10.60
2014,10,15,02,25,10.50
2014,10,15,02,26,10.50
2014,10,15,02,27,10.40
2014,10,15,02,28,10.40
2014,10,15,02,29,10.40
2014,10,15,02,30,10.40
2014,10,15,02,31,10.40
2014,10,15,02,32,10.40
2014,10,15,02,33,10.40
2014,10,15,02,34,10.40
2014,10,15,02,35,10.40
2014,10,15,02,36,10.40
2014,10,15,02,37,10.40
2014,10,15,02,38,10.40
2014,10,15,02,39,10.40
2014,10,15,02,40,10.50
2014,10,15,02,41,10.50
2014,10,15,02,42,10.60
2014,10,15,02,43,10.60
2014,10,15,02,44,10.70
2014,10,15,02,45,10.70
2014,10,15,02,46,10.80
2014,10,15,02,47,10.80
2014,10,15,02,48,10.80
2014,10,15,02,49,10.80
2014,10,15,02,50,10.90
2014,10,15,02,51,10.90
2014,10,15,02,52,11.00
2014,10,15,02,53,11.00
2014,10,15,02,54,11.10
2014,10,15,02,55,11.10
2014,10,15,02,56,11.10
2014,10,15,02,57,11.10
2014,10,15,02,58,11.10
2014,10,15,02,59,11.10
2014,10,15,03,00,11.10
2014,10,15,03,01,11.10
2014,10,15,03,02,11.10
2014,10,15,03,03,11.10
2014,10,15,03,04,11.10
2014,10,15,03,05,11.10
2014,10,15,03,06,11.10
2014,10,15,03,07,11.10
2014,10,15,03,08,11.10
2014,10,15,03,09,11.10
2014,10,15,03,10,11.10
2014,10,15,03,11,11.10
2014,10,15,03,12,11.20
2014,10,15,03,13,11.30
2014,10,15,03,14,11.30
2014,10,15,03,15,11.50
2014,10,15,03,16,11.60
2014,10,15,03,17,11.70
2014,10,15,03,18,11.80
2014,10,15,03,19,11.90
2014,10,15,03,20,12.00
2014,10,15,03,21,12.10
2014,10,15,03,22,12.10
2014,10,15,03,23,12.10
2014,10,15,03,24,12.10
2014,10,15,03,25,12.10
2014,10,15,03,26,12.20
2014,10,15,03,27,12.20
2014,10,15,03,28,12.20
2014,10,15,03,29,12.20
2014,10,15,03,30,12.20
2014,10,15,03,31,12.20
2014,10,15,03,32,12.20
2014,10,15,03,33,12.20
2014,10,15,03,34,12.20
2014,10,15,03,35,12.20
2014,10,15,03,36,12.20
2014,10,15,03,37,12.20
2014,10,15,03,38,12.20
2014,10,15,03,39,12.20
2014,10,15,03,40,12.20
2014,10,15,03,41,12.30
2014,10,15,03,42,12.30
2014,10,15,03,43,12.30
2014,10,15,03,44,12.30
2014,10,15,03,45,12.30
2014,10,15,03,46,12.30
2014,10,15,03,47,12.20
2014,10,15,03,48,12.20
2014,10,15,03,49,12.20
2014,10,15,03,50,12.20
2014,10,15,03,51,12.20
2014,10,15,03,52,12.20
2014,10,15,03,53,12.20
2014,10,15,03,54,12.20
2014,10,15,03,55,12.20
2014,10,15,03,56,12.20
2014,10,15,03,57,12.20
2014,10,15,03,58,12.10
2014,10,15,03,59,12.10
2014,10,15,04,00,12.10
2014,10,15,04,01,12.10
2014,10,15,04,02,12.10
2014,10,15,04,03,12.10
2014,10,15,04,04,12.10
2014,10,15,04,05,12.10
2014,10,15,04,06,12.10
2014,10,15,04,07,12.10
2014,10,15,04,08,12.10
2014,10,15,04,09,12.10
2014,10,15,04,10,12.10
2014,10,15,04,11,12.10
2014,10,15,04,12,12.10
2014,10,15,04,13,12.10
2014,10,15,04,14,12.10
2014,10,15,04,15,12.10
2014,10,15,04,16,12.10
2014,10,15,04,17,12.10
2014,10,15,04,18,12.10
2014,10,15,04,19,12.10
2014,10,15,04,20,12.10
2014,10,15,04,21,12.10
2014,10,15,04,22,12.10
2014,10,15,04,23,12.00
2014,10,15,04,24,12.00
2014,10,15,04,25,12.00
2014,10,15,04,26,12.00
2014,10,15,04,27,12.00
2014,10,15,04,28,12.00
2014,10,15,04,29,11.90
2014,10,15,04,30,11.90
2014,10,15,04,31,11.90
2014,10,15,04,32,11.90
2014,10,15,04,33,11.90
2014,10,15,04,34,11.90
2014,10,15,04,35,11.90
2014,10,15,04,36,11.90
2014,10,15,04,37,11.90
2014,10,15,04,38,11.80
2014,10,15,04,39,11.80
2014,10,15,04,40,11.80
2014,10,15,04,41,11.80
2014,10,15,04,42,11.80
2014,10,15,04,43,11.80
2014,10,15,04,44,11.80
2014,10,15,04,45,11.80
2014,10,15,04,46,11.80
2014,10,15,04,47,11.80
2014,10,15,04,48,11.80
2014,10,15,04,49,11.80
2014,10,15,04,50,11.80
2014,10,15,04,51,11.80
2014,10,15,04,52,11.70
2014,10,15,04,53,11.70
2014,10,15,04,54,11.70
2014,10,15,04,55,11.70
2014,10,15,04,56,11.70
2014,10,15,04,57,11.60
2014,10,15,04,58,11.60
2014,10,15,04,59,11.60
2014,10,15,05,00,11.60
2014,10,15,05,01,11.60
2014,10,15,05,02,11.60
2014,10,15,05,03,11.60
2014,10,15,05,04,11.60
2014,10,15,05,05,11.50
2014,10,15,05,06,11.50
2014,10,15,05,07,11.50
2014,10,15,05,08,11.50
2014,10,15,05,09,11.40
2014,10,15,05,10,11.40
2014,10,15,05,11,11.40
2014,10,15,05,12,11.40
2014,10,15,05,13,11.40
2014,10,15,05,14,11.40
2014,10,15,05,15,11.40
2014,10,15,05,16,11.40
2014,10,15,05,17,11.40
2014,10,15,05,18,11.40
2014,10,15,05,19,11.40
2014,10,15,05,20,11.40
2014,10,15,05,21,11.40
2014,10,15,05,22,11.40
2014,10,15,05,23,11.40
2014,10,15,05,24,11.30
2014,10,15,05,25,11.30
2014,10,15,05,26,11.30
2014,10,15,05,27,11.30
2014,10,15,05,28,11.30
2014,10,15,05,29,11.30
2014,10,15,05,30,11.30
2014,10,15,05,31,11.30
2014,10,15,05,32,11.30
2014,10,15,05,33,11.30
2014,10,15,05,34,11.30
2014,10,15,05,35,11.30
2014,10,15,05,36,11.30
2014,10,15,05,37,11.30
2014,10,15,05,38,11.30
2014,10,15,05,39,11.30
2014,10,15,05,40,11.30
2014,10,15,05,41,11.30
2014,10,15,05,42,11.30
2014,10,15,05,43,11.30
2014,10,15,05,44,11.30
2014,10,15,05,45,11.30
2014,10,15,05,46,11.30
2014,10,15,05,47,11.30
2014,10,15,05,48,11.30
2014,10,15,05,49,11.30
2014,10,15,05,50,11.30
2014,10,15,05,51,11.30
2014,10,15,05,52,11.30
2014,10,15,05,53,11.30
2014,10,15,05,54,11.30
2014,10,15,05,55,11.30
2014,10,15,05,56,11.30
2014,10,15,05,57,11.20
2014,10,15,05,58,11.20
2014,10,15,05,59,11.20
2014,10,15,06,00,11.20
2014,10,15,06,01,11.20
2014,10,15,06,02,11.20
2014,10,15,06,03,11.20
2014,10,15,06,04,11.20
2014,10,15,06,05,11.20
2014,10,15,06,06,11.20
2014,10,15,06,07,11.20
2014,10,15,06,08,11.20
2014,10,15,06,09,11.20
2014,10,15,06,10,11.20
2014,10,15,06,11,11.20
2014,10,15,06,12,11.20
2014,10,15,06,13,11.20
2014,10,15,06,14,11.20
2014,10,15,06,15,11.20
2014,10,15,06,16,11.20
2014,10,15,06,17,11.20
2014,10,15,06,18,11.10
2014,10,15,06,19,11.10
2014,10,15,06,20,11.10
2014,10,15,06,21,11.10
2014,10,15,06,22,11.10
2014,10,15,06,23,11.10
2014,10,15,06,24,11.10
2014,10,15,06,25,11.10
2014,10,15,06,26,11.10
2014,10,15,06,27,11.10
2014,10,15,06,28,11.10
2014,10,15,06,29,11.10
2014,10,15,06,30,11.10
2014,10,15,06,31,11.10
2014,10,15,06,32,11.10
2014,10,15,06,33,11.10
2014,10,15,06,34,11.10
2014,10,15,06,35,11.10
2014,10,15,06,36,11.10
2014,10,15,06,37,11.10
2014,10,15,06,38,11.10
2014,10,15,06,39,11.10
2014,10,15,06,40,11.10
2014,10,15,06,41,11.10
2014,10,15,06,42,11.10
2014,10,15,06,43,11.10
2014,10,15,06,44,11.10
2014,10,15,06,45,11.10
2014,10,15,06,46,11.10
2014,10,15,06,47,11.10
2014,10,15,06,48,11.10
2014,10,15,06,49,11.10
2014,10,15,06,50,11.10
2014,10,15,06,51,11.10
2014,10,15,06,52,11.10
2014,10,15,06,53,11.20
2014,10,15,06,54,11.20
2014,10,15,06,55,11.20
2014,10,15,06,56,11.20
2014,10,15,06,57,11.20
2014,10,15,06,58,11.20
2014,10,15,06,59,11.20
2014,10,15,07,00,11.20
2014,10,15,07,01,11.20
2014,10,15,07,02,11.20
2014,10,15,07,03,11.20
2014,10,15,07,04,11.20
2014,10,15,07,05,11.20
2014,10,15,07,06,11.20
2014,10,15,07,07,11.20
2014,10,15,07,08,11.20
2014,10,15,07,09,11.20
2014,10,15,07,10,11.20
2014,10,15,07,11,11.20
2014,10,15,07,12,11.20
2014,10,15,07,13,11.20
2014,10,15,07,14,11.20
2014,10,15,07,15,11.20
2014,10,15,07,16,11.20
2014,10,15,07,17,11.20
2014,10,15,07,18,11.20
2014,10,15,07,19,11.20
2014,10,15,07,20,11.20
2014,10,15,07,21,11.20
2014,10,15,07,22,11.20
2014,10,15,07,23,11.20
2014,10,15,07,24,11.20
2014,10,15,07,25,11.20
2014,10,15,07,26,11.20
2014,10,15,07,27,11.20
2014,10,15,07,28,11.20
2014,10,15,07,29,11.20
2014,10,15,07,30,11.20
2014,10,15,07,31,11.20
2014,10,15,07,32,11.20
2014,10,15,07,33,11.20
2014,10,15,07,34,11.20
2014,10,15,07,35,11.20
2014,10,15,07,36,11.20
2014,10,15,07,37,11.20
2014,10,15,07,38,11.20
2014,10,15,07,39,11.20
2014,10,15,07,40,11.20
2014,10,15,07,41,11.20
2014,10,15,07,42,11.20
2014,10,15,07,43,11.20
2014,10,15,07,44,11.20
2014,10,15,07,45,11.20
2014,10,15,07,46,11.20
2014,10,15,07,47,11.20
2014,10,15,07,48,11.20
2014,10,15,07,49,11.20
2014,10,15,07,50,11.20
2014,10,15,07,51,11.20
2014,10,15,07,52,11.20
2014,10,15,07,53,11.20
2014,10,15,07,54,11.20
2014,10,15,07,55,11.20
2014,10,15,07,56,11.20
2014,10,15,07,57,11.20
2014,10,15,07,58,11.20
2014,10,15,07,59,11.20
2014,10,15,08,00,11.20
2014,10,15,08,01,11.20
2014,10,15,08,02,11.20
2014,10,15,08,03,11.20
2014,10,15,08,04,11.20
2014,10,15,08,05,11.20
2014,10,15,08,06,11.20
2014,10,15,08,07,11.20
2014,10,15,08,08,11.20
2014,10,15,08,09,11.20
2014,10,15,08,10,11.20
2014,10,15,08,11,11.20
2014,10,15,08,12,11.20
2014,10,15,08,13,11.20
2014,10,15,08,14,11.20
2014,10,15,08,15,11.20
2014,10,15,08,16,11.20
2014,10,15,08,17,11.20
2014,10,15,08,18,11.20
2014,10,15,08,19,11.20
2014,10,15,08,20,11.20
2014,10,15,08,21,11.20
2014,10,15,08,22,11.20
2014,10,15,08,23,11.20
2014,10,15,08,24,11.20
2014,10,15,08,25,11.20
2014,10,15,08,26,11.20
2014,10,15,08,27,11.20
2014,10,15,08,28,11.30
2014,10,15,08,29,11.30
2014,10,15,08,30,11.30
2014,10,15,08,31,11.30
2014,10,15,08,32,11.30
2014,10,15,08,33,11.30
2014,10,15,08,34,11.30
2014,10,15,08,35,11.30
2014,10,15,08,36,11.30
2014,10,15,08,37,11.30
2014,10,15,08,38,11.30
2014,10,15,08,39,11.30
2014,10,15,08,40,11.30
2014,10,15,08,41,11.30
2014,10,15,08,42,11.30
2014,10,15,08,43,11.30
2014,10,15,08,44,11.30
2014,10,15,08,45,11.30
2014,10,15,08,46,11.30
2014,10,15,08,47,11.30
2014,10,15,08,48,11.30
2014,10,15,08,49,11.30
2014,10,15,08,50,11.40
2014,10,15,08,51,11.40
2014,10,15,08,52,11.40
2014,10,15,08,53,11.40
2014,10,15,08,54,11.40
2014,10,15,08,55,11.40
2014,10,15,08,56,11.40
2014,10,15,08,57,11.40
2014,10,15,08,58,11.50
2014,10,15,08,59,11.50
2014,10,15,09,00,11.50
2014,10,15,09,01,11.50
2014,10,15,09,02,11.50
2014,10,15,09,03,11.60
2014,10,15,09,04,11.60
2014,10,15,09,05,11.60
2014,10,15,09,06,11.60
2014,10,15,09,07,11.60
2014,10,15,09,08,11.60
2014,10,15,09,09,11.60
2014,10,15,09,10,11.60
2014,10,15,09,11,11.60
2014,10,15,09,12,11.60
2014,10,15,09,13,11.60
2014,10,15,09,14,11.60
2014,10,15,09,15,11.60
2014,10,15,09,16,11.70
2014,10,15,09,17,11.70
2014,10,15,09,18,11.70
2014,10,15,09,19,11.70
2014,10,15,09,20,11.70
2014,10,15,09,21,11.70
2014,10,15,09,22,11.70
2014,10,15,09,23,11.70
2014,10,15,09,24,11.70
2014,10,15,09,25,11.70
2014,10,15,09,26,11.70
2014,10,15,09,27,11.70
2014,10,15,09,28,11.70
2014,10,15,09,29,11.70
2014,10,15,09,30,11.70
2014,10,15,09,31,11.70
2014,10,15,09,32,11.80
2014,10,15,09,33,11.80
2014,10,15,09,34,11.80
2014,10,15,09,35,11.80
2014,10,15,09,36,11.80
2014,10,15,09,37,11.80
2014,10,15,09,38,11.80
2014,10,15,09,39,11.80
2014,10,15,09,40,11.80
2014,10,15,09,41,11.80
2014,10,15,09,42,11.80
2014,10,15,09,43,11.80
2014,10,15,09,44,11.80
2014,10,15,09,45,11.80
2014,10,15,09,46,11.80
2014,10,15,09,47,11.80
2014,10,15,09,48,11.80
2014,10,15,09,49,11.80
2014,10,15,09,50,11.80
2014,10,15,09,51,11.80
2014,10,15,09,52,11.80
2014,10,15,09,53,11.80
2014,10,15,09,54,11.80
2014,10,15,09,55,11.80
2014,10,15,09,56,11.80
2014,10,15,09,57,11.80
2014,10,15,09,58,11.80
2014,10,15,09,59,11.80
2014,10,15,10,00,11.80
2014,10,15,10,01,11.80
2014,10,15,10,02,11.90
2014,10,15,10,03,11.90
2014,10,15,10,04,11.90
2014,10,15,10,05,11.90
2014,10,15,10,06,11.90
2014,10,15,10,07,11.90
2014,10,15,10,08,11.80
2014,10,15,10,09,11.80
2014,10,15,10,10,11.80
2014,10,15,10,11,11.80
2014,10,15,10,12,11.80
2014,10,15,10,13,11.80
2014,10,15,10,14,11.80
2014,10,15,10,15,11.80
2014,10,15,10,16,11.80
2014,10,15,10,17,11.80
2014,10,15,10,18,11.80
2014,10,15,10,19,11.80
2014,10,15,10,20,11.80
2014,10,15,10,21,11.80
2014,10,15,10,22,11.80
2014,10,15,10,23,11.80
2014,10,15,10,24,11.80
2014,10,15,10,25,11.80
2014,10,15,10,26,11.80
2014,10,15,10,27,11.80
2014,10,15,10,28,11.80
2014,10,15,10,29,11.80
2014,10,15,10,30,11.80
2014,10,15,10,31,11.80
2014,10,15,10,32,11.80
2014,10,15,10,33,11.80
2014,10,15,10,34,11.80
2014,10,15,10,35,11.80
2014,10,15,10,36,11.80
2014,10,15,10,37,11.80
2014,10,15,10,38,11.80
2014,10,15,10,39,11.80
2014,10,15,10,40,11.80
2014,10,15,10,41,11.80
2014,10,15,10,42,11.80
2014,10,15,10,43,11.90
2014,10,15,10,44,11.90
2014,10,15,10,45,11.90
2014,10,15,10,46,11.90
2014,10,15,10,47,11.90
2014,10,15,10,48,11.90
2014,10,15,10,49,11.90
2014,10,15,10,50,11.90
2014,10,15,10,51,11.90
2014,10,15,10,52,11.90
2014,10,15,10,53,11.90
2014,10,15,10,54,11.90
2014,10,15,10,55,11.90
2014,10,15,10,56,12.00
2014,10,15,10,57,12.00
2014,10,15,10,58,12.00
2014,10,15,10,59,12.00
2014,10,15,11,00,12.00
2014,10,15,11,01,12.10
2014,10,15,11,02,12.10
2014,10,15,11,03,12.10
2014,10,15,11,04,12.10
2014,10,15,11,05,12.10
2014,10,15,11,06,12.10
2014,10,15,11,07,12.10
2014,10,15,11,08,12.10
2014,10,15,11,09,12.10
2014,10,15,11,10,12.10
2014,10,15,11,11,12.10
2014,10,15,11,12,12.20
2014,10,15,11,13,12.20
2014,10,15,11,14,12.20
2014,10,15,11,15,12.20
2014,10,15,11,16,12.20
2014,10,15,11,17,12.30
2014,10,15,11,18,12.30
2014,10,15,11,19,12.30
2014,10,15,11,20,12.30
2014,10,15,11,21,12.30
2014,10,15,11,22,12.40
2014,10,15,11,23,12.40
2014,10,15,11,24,12.40
2014,10,15,11,25,12.50
2014,10,15,11,26,12.50
2014,10,15,11,27,12.60
2014,10,15,11,28,12.60
2014,10,15,11,29,12.60
2014,10,15,11,30,12.60
2014,10,15,11,31,12.70
2014,10,15,11,32,12.70
2014,10,15,11,33,12.70
2014,10,15,11,34,12.70
2014,10,15,11,35,12.70
2014,10,15,11,36,12.70
2014,10,15,11,37,12.70
2014,10,15,11,38,12.70
2014,10,15,11,39,12.70
2014,10,15,11,40,12.70
2014,10,15,11,41,12.80
2014,10,15,11,42,12.80
2014,10,15,11,43,12.80
2014,10,15,11,44,12.80
2014,10,15,11,45,12.80
2014,10,15,11,46,12.80
2014,10,15,11,47,12.80
2014,10,15,11,48,12.80
2014,10,15,11,49,12.80
2014,10,15,11,50,12.80
2014,10,15,11,51,12.80
2014,10,15,11,52,12.90
2014,10,15,11,53,12.90
2014,10,15,11,54,12.90
2014,10,15,11,55,12.90
2014,10,15,11,56,12.90
2014,10,15,11,57,12.90
2014,10,15,11,58,12.90
2014,10,15,11,59,12.90
2014,10,15,12,00,12.90
2014,10,15,12,01,12.90
2014,10,15,12,02,12.80
2014,10,15,12,03,12.80
2014,10,15,12,04,12.80
2014,10,15,12,05,12.80
2014,10,15,12,06,12.90
2014,10,15,12,07,12.90
2014,10,15,12,08,12.90
2014,10,15,12,09,12.90
2014,10,15,12,10,12.90
2014,10,15,12,11,12.90
2014,10,15,12,12,12.90
2014,10,15,12,13,12.90
2014,10,15,12,14,12.90
2014,10,15,12,15,12.90
2014,10,15,12,16,12.90
2014,10,15,12,17,12.90
2014,10,15,12,18,12.90
2014,10,15,12,19,12.90
2014,10,15,12,20,12.90
2014,10,15,12,21,12.90
2014,10,15,12,22,12.90
2014,10,15,12,23,12.90
2014,10,15,12,24,12.90
2014,10,15,12,25,12.90
2014,10,15,12,26,12.90
2014,10,15,12,27,12.90
2014,10,15,12,28,12.90
2014,10,15,12,29,12.90
2014,10,15,12,30,13.00
2014,10,15,12,31,13.00
2014,10,15,12,32,13.10
2014,10,15,12,33,13.10
2014,10,15,12,34,13.10
2014,10,15,12,35,13.00
2014,10,15,12,36,13.00
2014,10,15,12,37,13.00
2014,10,15,12,38,13.00
2014,10,15,12,39,13.00
2014,10,15,12,40,13.00
2014,10,15,12,41,13.10
2014,10,15,12,42,13.10
2014,10,15,12,43,13.10
2014,10,15,12,44,13.10
2014,10,15,12,45,13.10
2014,10,15,12,46,13.10
2014,10,15,12,47,13.10
2014,10,15,12,48,13.10
2014,10,15,12,49,13.10
2014,10,15,12,50,13.10
2014,10,15,12,51,13.10
2014,10,15,12,52,13.10
2014,10,15,12,53,13.10
2014,10,15,12,54,13.10
2014,10,15,12,55,13.10
2014,10,15,12,56,13.10
2014,10,15,12,57,13.20
2014,10,15,12,58,13.20
2014,10,15,12,59,13.20
2014,10,15,13,00,13.20
2014,10,15,13,01,13.20
2014,10,15,13,02,13.20
2014,10,15,13,03,13.20
2014,10,15,13,04,13.20
2014,10,15,13,05,13.20
2014,10,15,13,06,13.20
2014,10,15,13,07,13.20
2014,10,15,13,08,13.10
2014,10,15,13,09,13.20
2014,10,15,13,10,13.20
2014,10,15,13,11,13.20
2014,10,15,13,12,13.20
2014,10,15,13,13,13.20
2014,10,15,13,14,13.20
2014,10,15,13,15,13.20
2014,10,15,13,16,13.20
2014,10,15,13,17,13.20
2014,10,15,13,18,13.20
2014,10,15,13,19,13.20
2014,10,15,13,20,13.20
2014,10,15,13,21,13.20
2014,10,15,13,22,13.20
2014,10,15,13,23,13.20
2014,10,15,13,24,13.20
2014,10,15,13,25,13.20
2014,10,15,13,26,13.20
2014,10,15,13,27,13.20
2014,10,15,13,28,13.20
2014,10,15,13,29,13.20
2014,10,15,13,30,13.20
2014,10,15,13,31,13.20
2014,10,15,13,32,13.20
2014,10,15,13,33,13.20
2014,10,15,13,34,13.20
2014,10,15,13,35,13.20
2014,10,15,13,36,13.20
2014,10,15,13,37,13.20
2014,10,15,13,38,13.20
2014,10,15,13,39,13.30
2014,10,15,13,40,13.30
2014,10,15,13,41,13.30
2014,10,15,13,42,13.30
2014,10,15,13,43,13.40
2014,10,15,13,44,13.40
2014,10,15,13,45,13.40
2014,10,15,13,46,13.50
2014,10,15,13,47,13.50
2014,10,15,13,48,13.50
2014,10,15,13,49,13.50
2014,10,15,13,50,13.40
2014,10,15,13,51,13.40
2014,10,15,13,52,13.40
2014,10,15,13,53,13.40
2014,10,15,13,54,13.40
2014,10,15,13,55,13.50
2014,10,15,13,56,13.50
2014,10,15,13,57,13.60
2014,10,15,13,58,13.60
2014,10,15,13,59,13.60
2014,10,15,14,00,13.70
2014,10,15,14,01,13.70
2014,10,15,14,02,13.70
2014,10,15,14,03,13.70
2014,10,15,14,04,13.70
2014,10,15,14,05,13.70
2014,10,15,14,06,13.70
2014,10,15,14,07,13.70
2014,10,15,14,08,13.70
2014,10,15,14,09,13.70
2014,10,15,14,10,13.80
2014,10,15,14,11,13.80
2014,10,15,14,12,13.80
2014,10,15,14,13,13.80
2014,10,15,14,14,13.80
2014,10,15,14,15,13.90
2014,10,15,14,16,13.90
2014,10,15,14,17,13.90
2014,10,15,14,18,14.00
2014,10,15,14,19,14.00
2014,10,15,14,20,14.10
2014,10,15,14,21,14.10
2014,10,15,14,22,14.20
2014,10,15,14,23,14.20
2014,10,15,14,24,14.30
2014,10,15,14,25,14.30
2014,10,15,14,26,14.30
2014,10,15,14,27,14.30
2014,10,15,14,28,14.30
2014,10,15,14,29,14.30
2014,10,15,14,30,14.30
2014,10,15,14,31,14.30
2014,10,15,14,32,14.30
2014,10,15,14,33,14.30
2014,10,15,14,34,14.30
2014,10,15,14,35,14.30
2014,10,15,14,36,14.30
2014,10,15,14,37,14.30
2014,10,15,14,38,14.30
2014,10,15,14,39,14.30
2014,10,15,14,40,14.30
2014,10,15,14,41,14.30
2014,10,15,14,42,14.30
2014,10,15,14,43,14.30
2014,10,15,14,44,14.30
2014,10,15,14,45,14.30
2014,10,15,14,46,14.30
2014,10,15,14,47,14.30
2014,10,15,14,48,14.40
2014,10,15,14,49,14.40
2014,10,15,14,50,14.40
2014,10,15,14,51,14.40
2014,10,15,14,52,14.40
2014,10,15,14,53,14.40
2014,10,15,14,54,14.50
2014,10,15,14,55,14.50
2014,10,15,14,56,14.50
2014,10,15,14,57,14.60
2014,10,15,14,58,14.60
2014,10,15,14,59,14.60
2014,10,15,15,00,14.60
2014,10,15,15,01,14.60
2014,10,15,15,02,14.60
2014,10,15,15,03,14.60
2014,10,15,15,04,14.60
2014,10,15,15,05,14.70
2014,10,15,15,06,14.70
2014,10,15,15,07,14.70
2014,10,15,15,08,14.70
2014,10,15,15,09,14.80
2014,10,15,15,10,14.80
2014,10,15,15,11,14.90
2014,10,15,15,12,14.90
2014,10,15,15,13,14.90
2014,10,15,15,14,15.00
2014,10,15,15,15,14.90
2014,10,15,15,16,14.90
2014,10,15,15,17,14.90
2014,10,15,15,18,14.80
2014,10,15,15,19,14.80
2014,10,15,15,20,14.80
2014,10,15,15,21,14.70
2014,10,15,15,22,14.70
2014,10,15,15,23,14.70
2014,10,15,15,24,14.70
2014,10,15,15,25,14.80
2014,10,15,15,26,14.80
2014,10,15,15,27,14.90
2014,10,15,15,28,14.90
2014,10,15,15,29,15.00
2014,10,15,15,30,15.00
2014,10,15,15,31,15.10
2014,10,15,15,32,15.10
2014,10,15,15,33,15.20
2014,10,15,15,34,15.20
2014,10,15,15,35,15.30
2014,10,15,15,36,15.30
2014,10,15,15,37,15.40
2014,10,15,15,38,15.50
2014,10,15,15,39,15.50
2014,10,15,15,40,15.70
2014,10,15,15,41,15.70
2014,10,15,15,42,15.70
2014,10,15,15,43,15.70
2014,10,15,15,44,15.60
2014,10,15,15,45,15.60
2014,10,15,15,46,15.50
2014,10,15,15,47,15.40
2014,10,15,15,48,15.40
2014,10,15,15,49,15.30
2014,10,15,15,50,15.30
2014,10,15,15,51,15.30
2014,10,15,15,52,15.40
2014,10,15,15,53,15.40
2014,10,15,15,54,15.40
2014,10,15,15,55,15.40
2014,10,15,15,56,15.50
2014,10,15,15,57,15.50
2014,10,15,15,58,15.60
2014,10,15,15,59,15.70
2014,10,15,16,00,15.70
2014,10,15,16,01,15.80
2014,10,15,16,02,15.90
2014,10,15,16,03,16.00
2014,10,15,16,04,16.00
2014,10,15,16,05,16.00
2014,10,15,16,06,16.10
2014,10,15,16,07,16.10
2014,10,15,16,08,16.20
2014,10,15,16,09,16.40
2014,10,15,16,10,16.40
2014,10,15,16,11,16.40
2014,10,15,16,12,16.40
2014,10,15,16,13,16.50
2014,10,15,16,14,16.50
2014,10,15,16,15,16.50
2014,10,15,16,16,16.50
2014,10,15,16,17,16.50
2014,10,15,16,18,16.50
2014,10,15,16,19,16.50
2014,10,15,16,20,16.50
2014,10,15,16,21,16.60
2014,10,15,16,22,16.60
2014,10,15,16,23,16.60
2014,10,15,16,24,16.60
2014,10,15,16,25,16.60
2014,10,15,16,26,16.60
2014,10,15,16,27,16.60
2014,10,15,16,28,16.50
2014,10,15,16,29,16.50
2014,10,15,16,30,16.40
2014,10,15,16,31,16.30
2014,10,15,16,32,16.30
2014,10,15,16,33,16.30
2014,10,15,16,34,16.20
2014,10,15,16,35,16.20
2014,10,15,16,36,16.10
2014,10,15,16,37,16.00
2014,10,15,16,38,16.00
2014,10,15,16,39,15.90
2014,10,15,16,40,15.90
2014,10,15,16,41,15.80
2014,10,15,16,42,15.80
2014,10,15,16,43,15.70
2014,10,15,16,44,15.70
2014,10,15,16,45,15.70
2014,10,15,16,46,15.60
2014,10,15,16,47,15.60
2014,10,15,16,48,15.60
2014,10,15,16,49,15.60
2014,10,15,16,50,15.60
2014,10,15,16,51,15.60
2014,10,15,16,52,15.60
2014,10,15,16,53,15.60
2014,10,15,16,54,15.60
2014,10,15,16,55,15.60
2014,10,15,16,56,15.60
2014,10,15,16,57,15.60
2014,10,15,16,58,15.60
2014,10,15,16,59,15.60
2014,10,15,17,00,15.60
2014,10,15,17,01,15.60
2014,10,15,17,02,15.60
2014,10,15,17,03,15.70
2014,10,15,17,04,15.70
2014,10,15,17,05,15.80
2014,10,15,17,06,15.80
2014,10,15,17,07,15.90
2014,10,15,17,08,16.00
2014,10,15,17,09,16.00
2014,10,15,17,10,16.10
2014,10,15,17,11,16.00
2014,10,15,17,12,16.00
2014,10,15,17,13,15.90
2014,10,15,17,14,15.90
2014,10,15,17,15,15.90
2014,10,15,17,16,15.90
2014,10,15,17,17,15.90
2014,10,15,17,18,15.90
2014,10,15,17,19,15.90
2014,10,15,17,20,15.90
2014,10,15,17,21,15.90
2014,10,15,17,22,15.80
2014,10,15,17,23,15.80
2014,10,15,17,24,15.80